Time,TemperatureF,DewpointF,PressureIn,WindDirection,WindDirectionDegrees,WindSpeedMPH,WindSpeedGustMPH,Humidity,HourlyPrecipIn,Conditions,Clouds,dailyrainin,SoftwareType,DateUTC
2013-08-25 00:02:00,79.0,75.8,30.12,East,95,0.0,1.0,90,0.00,,,0.00,VWS V14.01,2013-08-25 04:02:00,
2013-08-25 00:03:00,79.0,75.8,30.12,East,94,0.0,1.0,90,0.00,,,0.00,VWS V14.01,2013-08-25 04:03:00,
2013-08-25 00:05:00,79.0,75.8,30.12,East,95,0.0,1.0,90,0.00,,,0.00,VWS V14.01,2013-08-25 04:05:00,
2013-08-25 00:11:00,78.9,75.7,30.12,East,95,0.0,1.0,90,0.00,,,0.00,VWS V14.01,2013-08-25 04:11:00,
2013-08-25 00:13:00,78.9,75.7,30.12,East,95,0.0,1.0,90,0.00,,,0.00,VWS V14.01,2013-08-25 04:13:00,
2013-08-25 00:18:00,78.9,75.7,30.12,East,95,0.0,0.0,90,0.00,,,0.00,VWS V14.01,2013-08-25 04:18:00,
2013-08-25 00:23:00,78.8,75.6,30.12,East,95,0.0,0.0,90,0.00,,,0.00,VWS V14.01,2013-08-25 04:23:00,
2013-08-25 00:28:00,78.7,75.5,30.12,East,95,0.0,0.0,90,0.00,,,0.00,VWS V14.01,2013-08-25 04:28:00,
2013-08-25 00:33:00,78.6,75.4,30.12,East,95,0.0,0.0,90,0.00,,,0.00,VWS V14.01,2013-08-25 04:33:00,
2013-08-25 00:38:00,78.5,75.3,30.12,East,95,0.0,0.0,90,0.00,,,0.00,VWS V14.01,2013-08-25 04:38:00,
2013-08-25 00:43:00,78.4,75.6,30.12,East,95,0.0,0.0,91,0.00,,,0.00,VWS V14.01,2013-08-25 04:43:00,
2013-08-25 00:48:00,78.3,75.5,30.12,East,95,0.0,0.0,91,0.00,,,0.00,VWS V14.01,2013-08-25 04:48:00,
2013-08-25 00:53:00,78.4,75.6,30.13,East,95,0.0,1.0,91,0.00,,,0.00,VWS V14.01,2013-08-25 04:53:00,
2013-08-25 00:58:00,78.4,75.6,30.13,East,95,0.0,1.0,91,0.00,,,0.00,VWS V14.01,2013-08-25 04:58:00,
2013-08-25 01:05:00,78.4,75.6,30.13,East,95,0.0,0.0,91,0.00,,,0.00,VWS V14.01,2013-08-25 05:05:00,
2013-08-25 01:11:00,78.4,75.6,30.12,East,95,0.0,1.0,91,0.00,,,0.00,VWS V14.01,2013-08-25 05:11:00,
2013-08-25 01:17:00,78.4,75.6,30.12,East,95,0.0,0.0,91,0.00,,,0.00,VWS V14.01,2013-08-25 05:17:00,
2013-08-25 01:23:00,78.3,75.5,30.13,East,95,0.0,0.0,91,0.00,,,0.00,VWS V14.01,2013-08-25 05:23:00,
2013-08-25 01:28:00,78.2,75.4,30.13,East,95,0.0,1.0,91,0.00,,,0.00,VWS V14.01,2013-08-25 05:28:00,
2013-08-25 01:33:00,78.3,75.5,30.13,East,95,0.0,0.0,91,0.00,,,0.00,VWS V14.01,2013-08-25 05:33:00,
2013-08-25 01:38:00,78.3,75.5,30.13,East,95,0.0,0.0,91,0.00,,,0.00,VWS V14.01,2013-08-25 05:38:00,
2013-08-25 01:43:00,78.2,75.4,30.13,East,94,0.0,0.0,91,0.00,,,0.00,VWS V14.01,2013-08-25 05:43:00,
2013-08-25 01:48:00,78.2,75.4,30.13,East,95,0.0,0.0,91,0.00,,,0.00,VWS V14.01,2013-08-25 05:48:00,
2013-08-25 01:53:00,78.2,75.4,30.13,East,95,0.0,0.0,91,0.00,,,0.00,VWS V14.01,2013-08-25 05:53:00,
2013-08-25 01:58:00,78.1,75.3,30.13,East,95,0.0,0.0,91,0.00,,,0.00,VWS V14.01,2013-08-25 05:58:00,
2013-08-25 02:03:00,78.0,75.2,30.13,East,95,0.0,0.0,91,0.00,,,0.00,VWS V14.01,2013-08-25 06:03:00,
2013-08-25 02:08:00,77.9,75.1,30.12,NNE,27,0.0,1.0,91,0.00,,,0.00,VWS V14.01,2013-08-25 06:08:00,
2013-08-25 02:13:00,77.8,75.0,30.12,NNE,27,0.0,1.0,91,0.00,,,0.00,VWS V14.01,2013-08-25 06:13:00,
2013-08-25 02:18:00,77.6,74.8,30.12,NNE,28,0.0,1.0,91,0.00,,,0.00,VWS V14.01,2013-08-25 06:18:00,
2013-08-25 02:23:00,77.5,75.0,30.12,NNE,27,0.0,0.0,92,0.00,,,0.00,VWS V14.01,2013-08-25 06:23:00,
2013-08-25 02:28:00,77.4,74.9,30.12,NNE,27,0.0,0.0,92,0.00,,,0.00,VWS V14.01,2013-08-25 06:28:00,
2013-08-25 02:33:00,77.4,74.9,30.11,NNE,27,0.0,0.0,92,0.00,,,0.00,VWS V14.01,2013-08-25 06:33:00,
2013-08-25 02:38:00,77.3,74.8,30.11,NNE,27,0.0,0.0,92,0.00,,,0.00,VWS V14.01,2013-08-25 06:38:00,
2013-08-25 02:43:00,77.2,74.7,30.11,NNE,27,0.0,0.0,92,0.00,,,0.00,VWS V14.01,2013-08-25 06:43:00,
2013-08-25 02:48:00,77.1,74.6,30.11,NNE,28,0.0,0.0,92,0.00,,,0.00,VWS V14.01,2013-08-25 06:48:00,
2013-08-25 02:54:00,77.1,74.9,30.12,NNE,27,0.0,0.0,93,0.00,,,0.00,VWS V14.01,2013-08-25 06:54:00,
2013-08-25 03:00:00,77.1,74.9,30.12,NNE,27,0.0,0.0,93,0.00,,,0.00,VWS V14.01,2013-08-25 07:00:00,
2013-08-25 03:06:00,77.1,74.9,30.11,North,4,0.0,1.0,93,0.00,,,0.00,VWS V14.01,2013-08-25 07:06:00,
2013-08-25 03:12:00,77.0,74.5,30.11,North,8,0.0,1.0,92,0.00,,,0.00,VWS V14.01,2013-08-25 07:12:00,
2013-08-25 03:18:00,77.0,74.5,30.11,North,8,0.0,0.0,92,0.00,,,0.00,VWS V14.01,2013-08-25 07:18:00,
2013-08-25 03:24:00,77.0,74.5,30.11,North,8,0.0,0.0,92,0.00,,,0.00,VWS V14.01,2013-08-25 07:24:00,
2013-08-25 03:30:00,77.0,74.8,30.11,North,4,0.0,0.0,93,0.00,,,0.00,VWS V14.01,2013-08-25 07:30:00,
2013-08-25 03:36:00,76.9,74.7,30.11,North,8,0.0,0.0,93,0.00,,,0.00,VWS V14.01,2013-08-25 07:36:00,
2013-08-25 03:42:00,76.9,74.7,30.11,North,8,0.0,0.0,93,0.00,,,0.00,VWS V14.01,2013-08-25 07:42:00,
2013-08-25 03:48:00,76.9,74.7,30.11,North,4,0.0,0.0,93,0.00,,,0.00,VWS V14.01,2013-08-25 07:48:00,
2013-08-25 03:53:00,76.9,74.7,30.11,North,4,0.0,0.0,93,0.00,,,0.00,VWS V14.01,2013-08-25 07:53:00,
2013-08-25 03:58:00,76.8,74.6,30.11,North,8,0.0,1.0,93,0.00,,,0.00,VWS V14.01,2013-08-25 07:58:00,
2013-08-25 04:03:00,76.8,74.6,30.11,North,4,0.0,2.0,93,0.00,,,0.00,VWS V14.01,2013-08-25 08:03:00,
2013-08-25 04:08:00,76.8,74.6,30.11,North,8,0.0,1.0,93,0.00,,,0.00,VWS V14.01,2013-08-25 08:08:00,
2013-08-25 04:13:00,76.8,74.6,30.12,North,8,0.0,0.0,93,0.00,,,0.00,VWS V14.01,2013-08-25 08:13:00,
2013-08-25 04:18:00,76.8,74.6,30.12,NNE,16,0.0,4.0,93,0.00,,,0.00,VWS V14.01,2013-08-25 08:18:00,
2013-08-25 04:23:00,76.9,74.7,30.12,NNW,343,0.0,3.0,93,0.00,,,0.00,VWS V14.01,2013-08-25 08:23:00,
2013-08-25 04:28:00,76.9,74.4,30.11,North,354,0.0,3.0,92,0.00,,,0.00,VWS V14.01,2013-08-25 08:28:00,
2013-08-25 04:33:00,76.9,74.4,30.11,North,354,0.0,3.0,92,0.00,,,0.00,VWS V14.01,2013-08-25 08:33:00,
2013-08-25 04:38:00,76.9,74.4,30.11,North,359,0.0,3.0,92,0.00,,,0.00,VWS V14.01,2013-08-25 08:38:00,
2013-08-25 04:43:00,76.8,74.3,30.12,North,359,0.0,1.0,92,0.00,,,0.00,VWS V14.01,2013-08-25 08:43:00,
2013-08-25 04:48:00,76.8,74.3,30.12,North,349,0.0,3.0,92,0.00,,,0.00,VWS V14.01,2013-08-25 08:48:00,
2013-08-25 04:53:00,76.8,74.3,30.13,North,349,6.0,6.0,92,0.00,,,0.00,VWS V14.01,2013-08-25 08:53:00,
2013-08-25 05:00:00,76.6,74.1,30.13,WNW,283,1.0,1.0,92,0.00,,,0.00,VWS V14.01,2013-08-25 09:00:00,
2013-08-25 05:06:00,76.5,74.0,30.14,North,8,0.0,3.0,92,0.00,,,0.00,VWS V14.01,2013-08-25 09:06:00,
2013-08-25 05:12:00,76.4,73.9,30.14,North,8,0.0,4.0,92,0.00,,,0.00,VWS V14.01,2013-08-25 09:12:00,
2013-08-25 05:18:00,76.2,73.7,30.13,ENE,62,0.0,7.0,92,0.00,,,0.00,VWS V14.01,2013-08-25 09:18:00,
2013-08-25 05:23:00,76.1,73.6,30.13,North,4,0.0,7.0,92,0.00,,,0.00,VWS V14.01,2013-08-25 09:23:00,
2013-08-25 05:28:00,76.0,73.8,30.13,North,4,0.0,2.0,93,0.00,,,0.00,VWS V14.01,2013-08-25 09:28:00,
2013-08-25 05:33:00,75.9,73.7,30.14,North,11,2.0,6.0,93,0.00,,,0.00,VWS V14.01,2013-08-25 09:33:00,
2013-08-25 05:38:00,75.9,73.7,30.14,NNE,25,2.0,7.0,93,0.00,,,0.00,VWS V14.01,2013-08-25 09:38:00,
2013-08-25 05:43:00,76.0,73.8,30.14,ENE,60,3.0,7.0,93,0.00,,,0.00,VWS V14.01,2013-08-25 09:43:00,
2013-08-25 05:48:00,76.0,73.8,30.14,NE,46,3.0,7.0,93,0.00,,,0.00,VWS V14.01,2013-08-25 09:48:00,
2013-08-25 05:53:00,76.0,73.8,30.14,ESE,102,0.0,8.0,93,0.00,,,0.00,VWS V14.01,2013-08-25 09:53:00,
2013-08-25 05:58:00,75.9,73.7,30.14,ENE,64,0.0,7.0,93,0.00,,,0.00,VWS V14.01,2013-08-25 09:58:00,
2013-08-25 06:03:00,75.8,73.6,30.14,East,89,6.0,7.0,93,0.00,,,0.00,VWS V14.01,2013-08-25 10:03:00,
2013-08-25 06:08:00,75.5,73.0,30.14,East,89,5.0,11.0,92,0.00,,,0.00,VWS V14.01,2013-08-25 10:08:00,
2013-08-25 06:13:00,75.1,72.0,30.14,East,93,5.0,8.0,90,0.00,,,0.00,VWS V14.01,2013-08-25 10:13:00,
2013-08-25 06:19:00,74.8,71.7,30.14,East,88,2.0,4.0,90,0.00,,,0.00,VWS V14.01,2013-08-25 10:19:00,
2013-08-25 06:25:00,74.7,71.6,30.14,East,83,1.0,7.0,90,0.00,,,0.00,VWS V14.01,2013-08-25 10:25:00,
2013-08-25 06:31:00,74.9,72.1,30.15,NE,54,0.0,5.0,91,0.00,,,0.00,VWS V14.01,2013-08-25 10:31:00,
2013-08-25 06:37:00,75.0,72.2,30.15,ENE,74,7.0,8.0,91,0.00,,,0.00,VWS V14.01,2013-08-25 10:37:00,
2013-08-25 06:43:00,75.1,72.6,30.15,ENE,62,3.0,7.0,92,0.00,,,0.00,VWS V14.01,2013-08-25 10:43:00,
2013-08-25 06:48:00,75.1,72.6,30.15,East,97,0.0,5.0,92,0.00,,,0.00,VWS V14.01,2013-08-25 10:48:00,
2013-08-25 06:53:00,75.0,72.5,30.15,ENE,64,0.0,5.0,92,0.00,,,0.00,VWS V14.01,2013-08-25 10:53:00,
2013-08-25 06:58:00,75.0,72.8,30.15,ENE,63,1.0,6.0,93,0.00,,,0.00,VWS V14.01,2013-08-25 10:58:00,
2013-08-25 07:03:00,74.9,72.7,30.15,East,81,2.0,5.0,93,0.00,,,0.00,VWS V14.01,2013-08-25 11:03:00,
2013-08-25 07:08:00,74.8,72.6,30.15,NE,46,0.0,6.0,93,0.00,,,0.00,VWS V14.01,2013-08-25 11:08:00,
2013-08-25 07:13:00,74.8,72.6,30.15,ENE,73,0.0,3.0,93,0.00,,,0.00,VWS V14.01,2013-08-25 11:13:00,
2013-08-25 07:18:00,74.9,72.7,30.15,ENE,61,3.0,3.0,93,0.00,,,0.00,VWS V14.01,2013-08-25 11:18:00,
2013-08-25 07:23:00,75.0,72.8,30.16,ENE,68,0.0,3.0,93,0.00,,,0.00,VWS V14.01,2013-08-25 11:23:00,
2013-08-25 07:28:00,75.2,72.7,30.16,NE,35,0.0,0.0,92,0.00,,,0.00,VWS V14.01,2013-08-25 11:28:00,
2013-08-25 07:34:00,75.4,72.9,30.15,East,87,2.0,3.0,92,0.00,,,0.00,VWS V14.01,2013-08-25 11:34:00,
2013-08-25 07:40:00,75.5,72.7,30.16,NE,49,2.0,3.0,91,0.00,,,0.00,VWS V14.01,2013-08-25 11:40:00,
2013-08-25 07:46:00,75.5,72.7,30.16,NE,52,0.0,3.0,91,0.00,,,0.00,VWS V14.01,2013-08-25 11:46:00,
2013-08-25 07:52:00,75.5,72.7,30.16,NE,43,1.0,3.0,91,0.00,,,0.00,VWS V14.01,2013-08-25 11:52:00,
2013-08-25 07:58:00,75.6,73.1,30.16,NE,54,3.0,3.0,92,0.00,,,0.00,VWS V14.01,2013-08-25 11:58:00,
2013-08-25 08:03:00,75.7,73.2,30.16,North,4,0.0,4.0,92,0.00,,,0.00,VWS V14.01,2013-08-25 12:03:00,
2013-08-25 08:08:00,75.7,73.2,30.16,NNE,18,0.0,5.0,92,0.00,,,0.00,VWS V14.01,2013-08-25 12:08:00,
2013-08-25 08:13:00,75.7,73.2,30.15,East,87,0.0,6.0,92,0.00,,,0.00,VWS V14.01,2013-08-25 12:13:00,
2013-08-25 08:18:00,75.7,73.2,30.16,East,90,5.0,5.0,92,0.00,,,0.00,VWS V14.01,2013-08-25 12:18:00,
2013-08-25 08:23:00,75.7,73.2,30.16,NE,41,0.0,5.0,92,0.00,,,0.00,VWS V14.01,2013-08-25 12:23:00,
2013-08-25 08:28:00,76.0,73.5,30.16,East,95,5.0,5.0,92,0.00,,,0.00,VWS V14.01,2013-08-25 12:28:00,
2013-08-25 08:33:00,76.2,73.4,30.16,ESE,102,2.0,5.0,91,0.00,,,0.00,VWS V14.01,2013-08-25 12:33:00,
2013-08-25 08:38:00,76.4,73.6,30.16,NE,49,0.0,3.0,91,0.00,,,0.00,VWS V14.01,2013-08-25 12:38:00,
2013-08-25 08:43:00,76.7,73.9,30.16,ESE,112,0.0,2.0,91,0.00,,,0.00,VWS V14.01,2013-08-25 12:43:00,
2013-08-25 08:48:00,77.0,74.2,30.16,ESE,112,0.0,1.0,91,0.00,,,0.00,VWS V14.01,2013-08-25 12:48:00,
2013-08-25 08:53:00,77.4,74.2,30.16,NNW,330,0.0,1.0,90,0.00,,,0.00,VWS V14.01,2013-08-25 12:53:00,
2013-08-25 08:58:00,77.8,74.6,30.16,East,85,3.0,3.0,90,0.00,,,0.00,VWS V14.01,2013-08-25 12:58:00,
2013-08-25 09:03:00,78.0,74.5,30.16,East,85,1.0,6.0,89,0.00,,,0.00,VWS V14.01,2013-08-25 13:03:00,
2013-08-25 09:08:00,78.2,74.7,30.16,North,354,0.0,5.0,89,0.00,,,0.00,VWS V14.01,2013-08-25 13:08:00,
2013-08-25 09:13:00,78.4,74.9,30.16,North,359,4.0,4.0,89,0.00,,,0.00,VWS V14.01,2013-08-25 13:13:00,
2013-08-25 09:19:00,78.5,75.0,30.16,NNW,338,2.0,2.0,89,0.00,,,0.00,VWS V14.01,2013-08-25 13:19:00,
2013-08-25 09:25:00,78.7,75.2,30.16,NNW,335,1.0,3.0,89,0.00,,,0.00,VWS V14.01,2013-08-25 13:25:00,
2013-08-25 09:31:00,78.8,75.3,30.17,NNE,16,0.0,4.0,89,0.00,,,0.00,VWS V14.01,2013-08-25 13:31:00,
2013-08-25 09:37:00,78.7,75.2,30.17,NNW,345,3.0,5.0,89,0.00,,,0.00,VWS V14.01,2013-08-25 13:37:00,
2013-08-25 09:43:00,78.5,75.0,30.17,NNE,32,0.0,3.0,89,0.00,,,0.00,VWS V14.01,2013-08-25 13:43:00,
2013-08-25 09:48:00,78.6,75.1,30.17,NNE,16,1.0,2.0,89,0.00,,,0.00,VWS V14.01,2013-08-25 13:48:00,
2013-08-25 09:53:00,78.7,75.2,30.17,NNW,331,3.0,4.0,89,0.00,,,0.00,VWS V14.01,2013-08-25 13:53:00,
2013-08-25 09:58:00,78.7,75.2,30.17,East,95,0.0,2.0,89,0.00,,,0.00,VWS V14.01,2013-08-25 13:58:00,
2013-08-25 10:04:00,78.9,75.7,30.17,ENE,60,0.0,3.0,90,0.00,,,0.00,VWS V14.01,2013-08-25 14:04:00,
2013-08-25 10:10:00,79.5,76.3,30.17,ESE,102,5.0,7.0,90,0.00,,,0.00,VWS V14.01,2013-08-25 14:10:00,
2013-08-25 10:16:00,80.0,76.5,30.17,East,86,0.0,6.0,89,0.00,,,0.00,VWS V14.01,2013-08-25 14:16:00,
2013-08-25 10:22:00,80.5,76.6,30.17,NE,39,3.0,6.0,88,0.00,,,0.00,VWS V14.01,2013-08-25 14:22:00,
2013-08-25 10:28:00,80.9,77.0,30.17,East,81,0.0,6.0,88,0.00,,,0.00,VWS V14.01,2013-08-25 14:28:00,
2013-08-25 10:33:00,81.3,77.1,30.17,ENE,78,8.0,8.0,87,0.00,,,0.00,VWS V14.01,2013-08-25 14:33:00,
2013-08-25 10:38:00,81.4,76.5,30.17,ENE,72,4.0,8.0,85,0.00,,,0.00,VWS V14.01,2013-08-25 14:38:00,
2013-08-25 10:43:00,81.5,76.6,30.17,East,87,6.0,8.0,85,0.00,,,0.00,VWS V14.01,2013-08-25 14:43:00,
2013-08-25 10:48:00,81.8,76.5,30.17,NNE,23,0.0,9.0,84,0.00,,,0.00,VWS V14.01,2013-08-25 14:48:00,
2013-08-25 10:56:00,81.9,75.9,30.17,ENE,68,3.0,11.0,82,0.00,,,0.00,VWS V14.01,2013-08-25 14:56:00,
2013-08-25 11:02:00,81.7,76.0,30.18,NE,43,6.0,11.0,83,0.00,,,0.00,VWS V14.01,2013-08-25 15:02:00,
2013-08-25 11:08:00,81.8,76.1,30.18,ENE,63,2.0,8.0,83,0.00,,,0.00,VWS V14.01,2013-08-25 15:08:00,
2013-08-25 11:13:00,81.8,76.1,30.18,East,83,2.0,9.0,83,0.00,,,0.00,VWS V14.01,2013-08-25 15:13:00,
2013-08-25 11:20:00,81.9,75.9,30.18,NE,46,8.0,13.0,82,0.00,,,0.00,VWS V14.01,2013-08-25 15:20:00,
2013-08-25 11:26:00,81.6,75.9,30.18,East,88,9.0,11.0,83,0.01,,,0.01,VWS V14.01,2013-08-25 15:26:00,
2013-08-25 11:32:00,80.3,76.1,30.18,NE,51,2.0,9.0,87,0.02,,,0.02,VWS V14.01,2013-08-25 15:32:00,
2013-08-25 11:38:00,80.4,76.2,30.18,East,79,7.0,11.0,87,0.02,,,0.02,VWS V14.01,2013-08-25 15:38:00,
2013-08-25 11:43:00,80.6,76.0,30.18,NE,56,4.0,10.0,86,0.02,,,0.02,VWS V14.01,2013-08-25 15:43:00,
2013-08-25 11:48:00,80.0,75.4,30.18,NE,56,5.0,9.0,86,0.03,,,0.03,VWS V14.01,2013-08-25 15:48:00,
2013-08-25 11:53:00,79.9,76.0,30.18,NNE,31,4.0,8.0,88,0.03,,,0.03,VWS V14.01,2013-08-25 15:53:00,
2013-08-25 11:59:00,79.3,75.4,30.18,NE,38,4.0,7.0,88,0.09,,,0.09,VWS V14.01,2013-08-25 15:59:00,
2013-08-25 12:05:00,78.4,74.9,30.18,ENE,69,4.0,10.0,89,0.10,,,0.10,VWS V14.01,2013-08-25 16:05:00,
2013-08-25 12:11:00,78.3,75.5,30.18,East,81,3.0,10.0,91,0.11,,,0.11,VWS V14.01,2013-08-25 16:11:00,
2013-08-25 12:17:00,78.2,75.4,30.18,NE,37,0.0,10.0,91,0.15,,,0.15,VWS V14.01,2013-08-25 16:17:00,
2013-08-25 12:23:00,78.4,75.9,30.18,NE,48,0.0,8.0,92,0.16,,,0.16,VWS V14.01,2013-08-25 16:23:00,
2013-08-25 12:28:00,79.1,76.2,30.17,NE,52,5.0,8.0,91,0.16,,,0.16,VWS V14.01,2013-08-25 16:28:00,
2013-08-25 12:33:00,79.7,76.8,30.17,East,82,1.0,7.0,91,0.14,,,0.16,VWS V14.01,2013-08-25 16:33:00,
2013-08-25 12:38:00,80.4,76.9,30.17,ENE,73,3.0,11.0,89,0.14,,,0.16,VWS V14.01,2013-08-25 16:38:00,
2013-08-25 12:43:00,81.4,77.5,30.17,East,100,3.0,13.0,88,0.14,,,0.16,VWS V14.01,2013-08-25 16:43:00,
2013-08-25 12:48:00,81.8,76.8,30.17,ENE,73,5.0,13.0,85,0.14,,,0.16,VWS V14.01,2013-08-25 16:48:00,
2013-08-25 12:53:00,82.3,76.6,30.16,NE,44,6.0,12.0,83,0.13,,,0.16,VWS V14.01,2013-08-25 16:53:00,
2013-08-25 12:58:00,82.5,76.8,30.16,ESE,116,4.0,17.0,83,0.13,,,0.16,VWS V14.01,2013-08-25 16:58:00,
2013-08-25 13:03:00,82.5,76.4,30.16,ENE,71,9.0,16.0,82,0.07,,,0.16,VWS V14.01,2013-08-25 17:03:00,
2013-08-25 13:08:00,82.4,76.0,30.16,ESE,104,10.0,13.0,81,0.06,,,0.16,VWS V14.01,2013-08-25 17:08:00,
2013-08-25 13:13:00,82.6,76.2,30.16,East,79,9.0,17.0,81,0.06,,,0.16,VWS V14.01,2013-08-25 17:13:00,
2013-08-25 13:18:00,82.6,75.8,30.16,ENE,64,4.0,17.0,80,0.05,,,0.16,VWS V14.01,2013-08-25 17:18:00,
2013-08-25 13:23:00,82.8,76.4,30.16,East,79,7.0,16.0,81,0.01,,,0.16,VWS V14.01,2013-08-25 17:23:00,
2013-08-25 13:28:00,82.7,76.3,30.16,East,85,9.0,14.0,81,0.00,,,0.16,VWS V14.01,2013-08-25 17:28:00,
2013-08-25 13:33:00,82.3,75.9,30.16,NNE,12,3.0,14.0,81,0.00,,,0.16,VWS V14.01,2013-08-25 17:33:00,
2013-08-25 13:38:00,82.1,76.1,30.15,ENE,68,7.0,14.0,82,0.00,,,0.16,VWS V14.01,2013-08-25 17:38:00,
2013-08-25 13:43:00,82.7,76.3,30.15,East,89,2.0,16.0,81,0.00,,,0.16,VWS V14.01,2013-08-25 17:43:00,
2013-08-25 13:48:00,82.9,76.1,30.15,ENE,77,8.0,16.0,80,0.00,,,0.16,VWS V14.01,2013-08-25 17:48:00,
2013-08-25 13:53:00,82.9,76.1,30.15,East,83,6.0,9.0,80,0.00,,,0.16,VWS V14.01,2013-08-25 17:53:00,
2013-08-25 13:58:00,83.2,75.6,30.15,East,82,5.0,18.0,78,0.00,,,0.16,VWS V14.01,2013-08-25 17:58:00,
2013-08-25 14:03:00,83.4,75.8,30.15,ENE,78,10.0,15.0,78,0.00,,,0.16,VWS V14.01,2013-08-25 18:03:00,
2013-08-25 14:08:00,81.9,75.9,30.15,ESE,104,8.0,13.0,82,0.00,,,0.16,VWS V14.01,2013-08-25 18:08:00,
2013-08-25 14:13:00,81.0,76.1,30.15,ENE,59,4.0,14.0,85,0.00,,,0.16,VWS V14.01,2013-08-25 18:13:00,
2013-08-25 14:18:00,81.0,76.1,30.15,ENE,70,9.0,18.0,85,0.00,,,0.16,VWS V14.01,2013-08-25 18:18:00,
2013-08-25 14:23:00,81.2,75.9,30.15,ENE,73,3.0,15.0,84,0.00,,,0.16,VWS V14.01,2013-08-25 18:23:00,
2013-08-25 14:28:00,81.3,74.9,30.15,NE,53,6.0,15.0,81,0.00,,,0.16,VWS V14.01,2013-08-25 18:28:00,
2013-08-25 14:33:00,81.2,75.2,30.15,NE,45,2.0,13.0,82,0.00,,,0.16,VWS V14.01,2013-08-25 18:33:00,
2013-08-25 14:38:00,80.8,74.8,30.15,NNE,16,5.0,13.0,82,0.00,,,0.16,VWS V14.01,2013-08-25 18:38:00,
2013-08-25 14:43:00,80.6,75.0,30.15,NE,42,7.0,13.0,83,0.00,,,0.16,VWS V14.01,2013-08-25 18:43:00,
2013-08-25 14:48:00,80.4,74.4,30.15,ENE,58,7.0,14.0,82,0.00,,,0.16,VWS V14.01,2013-08-25 18:48:00,
2013-08-25 14:53:00,80.1,74.1,30.15,ENE,61,3.0,14.0,82,0.00,,,0.16,VWS V14.01,2013-08-25 18:53:00,
2013-08-25 14:58:00,79.9,73.9,30.14,NE,41,6.0,14.0,82,0.00,,,0.16,VWS V14.01,2013-08-25 18:58:00,
2013-08-25 15:03:00,79.5,74.2,30.14,ENE,64,5.0,10.0,84,0.00,,,0.16,VWS V14.01,2013-08-25 19:03:00,
2013-08-25 15:08:00,79.2,73.9,30.14,ENE,68,4.0,11.0,84,0.00,,,0.16,VWS V14.01,2013-08-25 19:08:00,
2013-08-25 15:13:00,78.9,73.3,30.13,NE,43,4.0,11.0,83,0.00,,,0.16,VWS V14.01,2013-08-25 19:13:00,
2013-08-25 15:18:00,79.2,73.2,30.13,ENE,71,4.0,9.0,82,0.00,,,0.16,VWS V14.01,2013-08-25 19:18:00,
2013-08-25 15:23:00,79.8,73.4,30.13,NE,56,7.0,9.0,81,0.00,,,0.16,VWS V14.01,2013-08-25 19:23:00,
2013-08-25 15:28:00,80.0,73.7,30.13,East,83,8.0,13.0,81,0.00,,,0.16,VWS V14.01,2013-08-25 19:28:00,
2013-08-25 15:33:00,80.2,74.2,30.14,ENE,70,2.0,10.0,82,0.00,,,0.16,VWS V14.01,2013-08-25 19:33:00,
2013-08-25 15:38:00,80.1,74.1,30.14,East,86,1.0,7.0,82,0.00,,,0.16,VWS V14.01,2013-08-25 19:38:00,
2013-08-25 15:43:00,79.9,74.6,30.14,ENE,67,0.0,6.0,84,0.00,,,0.16,VWS V14.01,2013-08-25 19:43:00,
2013-08-25 15:48:00,79.8,74.9,30.13,East,91,0.0,5.0,85,0.00,,,0.16,VWS V14.01,2013-08-25 19:48:00,
2013-08-25 15:53:00,79.7,75.2,30.13,NNE,18,2.0,7.0,86,0.00,,,0.16,VWS V14.01,2013-08-25 19:53:00,
2013-08-25 15:58:00,79.8,75.2,30.13,East,100,2.0,10.0,86,0.00,,,0.16,VWS V14.01,2013-08-25 19:58:00,
2013-08-25 16:03:00,80.1,75.9,30.14,ENE,77,0.0,10.0,87,0.01,,,0.17,VWS V14.01,2013-08-25 20:03:00,
2013-08-25 16:08:00,79.9,76.0,30.13,ENE,60,4.0,14.0,88,0.03,,,0.19,VWS V14.01,2013-08-25 20:08:00,
2013-08-25 16:13:00,79.8,76.3,30.13,East,88,9.0,9.0,89,0.03,,,0.19,VWS V14.01,2013-08-25 20:13:00,
2013-08-25 16:18:00,80.1,75.9,30.14,NNE,33,4.0,15.0,87,0.03,,,0.19,VWS V14.01,2013-08-25 20:18:00,
2013-08-25 16:23:00,80.2,75.6,30.13,East,99,3.0,18.0,86,0.03,,,0.19,VWS V14.01,2013-08-25 20:23:00,
2013-08-25 16:28:00,80.3,75.7,30.13,ENE,71,10.0,16.0,86,0.03,,,0.19,VWS V14.01,2013-08-25 20:28:00,
2013-08-25 16:33:00,80.4,75.5,30.13,East,83,13.0,15.0,85,0.03,,,0.19,VWS V14.01,2013-08-25 20:33:00,
2013-08-25 16:38:00,80.3,75.4,30.13,ENE,65,4.0,13.0,85,0.03,,,0.19,VWS V14.01,2013-08-25 20:38:00,
2013-08-25 16:43:00,80.3,75.7,30.13,NE,52,3.0,9.0,86,0.03,,,0.19,VWS V14.01,2013-08-25 20:43:00,
2013-08-25 16:48:00,80.3,75.7,30.14,ENE,70,3.0,10.0,86,0.03,,,0.19,VWS V14.01,2013-08-25 20:48:00,
2013-08-25 16:53:00,80.0,75.4,30.13,ENE,68,7.0,12.0,86,0.04,,,0.20,VWS V14.01,2013-08-25 20:53:00,
2013-08-25 16:58:00,79.3,75.4,30.14,NE,49,3.0,9.0,88,0.04,,,0.20,VWS V14.01,2013-08-25 20:58:00,
2013-08-25 17:03:00,79.3,75.1,30.14,NNE,30,5.0,8.0,87,0.03,,,0.20,VWS V14.01,2013-08-25 21:03:00,
2013-08-25 17:09:00,79.4,75.2,30.14,East,91,1.0,13.0,87,0.01,,,0.20,VWS V14.01,2013-08-25 21:09:00,
2013-08-25 17:15:00,79.7,75.2,30.14,NE,38,6.0,11.0,86,0.01,,,0.20,VWS V14.01,2013-08-25 21:15:00,
2013-08-25 17:21:00,79.9,75.0,30.13,East,97,3.0,11.0,85,0.01,,,0.20,VWS V14.01,2013-08-25 21:21:00,
2013-08-25 17:27:00,80.0,75.1,30.14,East,80,8.0,11.0,85,0.01,,,0.20,VWS V14.01,2013-08-25 21:27:00,
2013-08-25 17:33:00,80.1,75.2,30.13,NE,49,10.0,14.0,85,0.01,,,0.20,VWS V14.01,2013-08-25 21:33:00,
2013-08-25 17:39:00,80.1,75.2,30.13,ENE,66,2.0,13.0,85,0.01,,,0.20,VWS V14.01,2013-08-25 21:39:00,
2013-08-25 17:45:00,80.1,75.2,30.13,NNE,31,4.0,13.0,85,0.01,,,0.20,VWS V14.01,2013-08-25 21:45:00,
2013-08-25 17:51:00,80.1,74.8,30.13,ENE,66,11.0,13.0,84,0.01,,,0.20,VWS V14.01,2013-08-25 21:51:00,
2013-08-25 17:57:00,80.0,74.4,30.13,ENE,59,10.0,16.0,83,0.00,,,0.20,VWS V14.01,2013-08-25 21:57:00,
2013-08-25 18:03:00,80.0,74.7,30.13,ENE,71,5.0,14.0,84,0.00,,,0.20,VWS V14.01,2013-08-25 22:03:00,
2013-08-25 18:08:00,80.1,74.8,30.13,East,97,10.0,10.0,84,0.00,,,0.20,VWS V14.01,2013-08-25 22:08:00,
2013-08-25 18:15:00,80.0,74.4,30.13,NE,39,4.0,16.0,83,0.00,,,0.20,VWS V14.01,2013-08-25 22:15:00,
2013-08-25 18:21:00,79.9,74.3,30.13,ESE,106,11.0,13.0,83,0.00,,,0.20,VWS V14.01,2013-08-25 22:21:00,
2013-08-25 18:27:00,79.8,73.8,30.14,East,91,5.0,18.0,82,0.00,,,0.20,VWS V14.01,2013-08-25 22:27:00,
2013-08-25 18:33:00,79.9,73.9,30.14,NE,56,8.0,15.0,82,0.00,,,0.20,VWS V14.01,2013-08-25 22:33:00,
2013-08-25 18:38:00,79.8,73.8,30.14,ENE,64,5.0,18.0,82,0.00,,,0.20,VWS V14.01,2013-08-25 22:38:00,
2013-08-25 18:45:00,79.7,74.1,30.14,East,85,13.0,13.0,83,0.00,,,0.20,VWS V14.01,2013-08-25 22:45:00,
2013-08-25 18:51:00,79.7,74.1,30.14,NE,47,5.0,10.0,83,0.00,,,0.20,VWS V14.01,2013-08-25 22:51:00,
2013-08-25 18:57:00,79.7,74.1,30.14,East,86,7.0,12.0,83,0.00,,,0.20,VWS V14.01,2013-08-25 22:57:00,
2013-08-25 19:03:00,79.7,74.1,30.14,NE,49,5.0,14.0,83,0.00,,,0.20,VWS V14.01,2013-08-25 23:03:00,
2013-08-25 19:10:00,79.6,73.6,30.14,ENE,78,6.0,14.0,82,0.00,,,0.20,VWS V14.01,2013-08-25 23:10:00,
2013-08-25 19:16:00,79.6,73.6,30.14,ESE,106,11.0,11.0,82,0.00,,,0.20,VWS V14.01,2013-08-25 23:16:00,
2013-08-25 19:22:00,79.6,74.0,30.14,East,84,6.0,9.0,83,0.00,,,0.20,VWS V14.01,2013-08-25 23:22:00,
2013-08-25 19:28:00,79.5,73.9,30.14,NE,55,1.0,7.0,83,0.00,,,0.20,VWS V14.01,2013-08-25 23:28:00,
2013-08-25 19:33:00,79.5,73.9,30.14,NE,48,4.0,8.0,83,0.00,,,0.20,VWS V14.01,2013-08-25 23:33:00,
2013-08-25 19:40:00,79.4,74.2,30.14,NE,48,2.0,6.0,84,0.00,,,0.20,VWS V14.01,2013-08-25 23:40:00,
2013-08-25 19:46:00,79.4,73.4,30.15,East,81,9.0,9.0,82,0.00,,,0.20,VWS V14.01,2013-08-25 23:46:00,
2013-08-25 19:52:00,79.4,73.1,30.15,NE,51,3.0,11.0,81,0.00,,,0.20,VWS V14.01,2013-08-25 23:52:00,
2013-08-25 19:58:00,79.4,73.1,30.15,ENE,67,8.0,13.0,81,0.00,,,0.20,VWS V14.01,2013-08-25 23:58:00,
2013-08-25 20:03:00,79.3,73.0,30.15,ESE,102,9.0,9.0,81,0.00,,,0.20,VWS V14.01,2013-08-26 00:03:00,
2013-08-25 20:08:00,79.3,73.0,30.15,NE,47,5.0,12.0,81,0.00,,,0.20,VWS V14.01,2013-08-26 00:08:00,
2013-08-25 20:13:00,79.2,72.5,30.15,East,95,5.0,11.0,80,0.00,,,0.20,VWS V14.01,2013-08-26 00:13:00,
2013-08-25 20:18:00,79.1,72.4,30.15,ENE,74,7.0,11.0,80,0.00,,,0.20,VWS V14.01,2013-08-26 00:18:00,
2013-08-25 20:23:00,79.2,72.5,30.15,East,91,2.0,10.0,80,0.00,,,0.20,VWS V14.01,2013-08-26 00:23:00,
2013-08-25 20:28:00,79.1,72.4,30.16,NE,45,4.0,10.0,80,0.00,,,0.20,VWS V14.01,2013-08-26 00:28:00,
2013-08-25 20:33:00,79.0,72.7,30.16,East,85,8.0,8.0,81,0.00,,,0.20,VWS V14.01,2013-08-26 00:33:00,
2013-08-25 20:40:00,78.9,72.6,30.16,NE,43,5.0,5.0,81,0.00,,,0.20,VWS V14.01,2013-08-26 00:40:00,
2013-08-25 20:46:00,78.8,72.5,30.16,NE,54,4.0,9.0,81,0.00,,,0.20,VWS V14.01,2013-08-26 00:46:00,
2013-08-25 20:52:00,78.8,72.5,30.16,NE,52,5.0,9.0,81,0.00,,,0.20,VWS V14.01,2013-08-26 00:52:00,
2013-08-25 20:58:00,78.8,72.5,30.17,ENE,67,4.0,11.0,81,0.00,,,0.20,VWS V14.01,2013-08-26 00:58:00,
2013-08-25 21:03:00,78.8,72.5,30.17,NE,41,4.0,7.0,81,0.00,,,0.20,VWS V14.01,2013-08-26 01:03:00,
2013-08-25 21:10:00,78.7,72.4,30.17,East,83,5.0,7.0,81,0.00,,,0.20,VWS V14.01,2013-08-26 01:10:00,
2013-08-25 21:16:00,78.7,72.4,30.17,ENE,57,2.0,7.0,81,0.00,,,0.20,VWS V14.01,2013-08-26 01:16:00,
2013-08-25 21:22:00,78.6,72.3,30.17,ENE,58,8.0,10.0,81,0.00,,,0.20,VWS V14.01,2013-08-26 01:22:00,
2013-08-25 21:28:00,78.7,72.4,30.17,NE,46,2.0,9.0,81,0.00,,,0.20,VWS V14.01,2013-08-26 01:28:00,
2013-08-25 21:33:00,78.7,72.4,30.17,North,4,6.0,9.0,81,0.00,,,0.20,VWS V14.01,2013-08-26 01:33:00,
2013-08-25 21:38:00,78.8,72.5,30.18,ENE,58,2.0,9.0,81,0.00,,,0.20,VWS V14.01,2013-08-26 01:38:00,
2013-08-25 21:43:00,78.8,72.5,30.18,East,81,2.0,9.0,81,0.00,,,0.20,VWS V14.01,2013-08-26 01:43:00,
2013-08-25 21:48:00,78.8,72.8,30.18,NE,53,1.0,7.0,82,0.00,,,0.20,VWS V14.01,2013-08-26 01:48:00,
2013-08-25 21:53:00,78.7,72.8,30.18,East,82,0.0,6.0,82,0.00,,,0.20,VWS V14.01,2013-08-26 01:53:00,
2013-08-25 21:58:00,78.7,72.8,30.19,ENE,75,4.0,8.0,82,0.00,,,0.20,VWS V14.01,2013-08-26 01:58:00,
2013-08-25 22:04:00,78.7,73.1,30.19,East,90,5.0,9.0,83,0.00,,,0.20,VWS V14.01,2013-08-26 02:04:00,
2013-08-25 22:10:00,78.5,72.9,30.19,East,87,10.0,10.0,83,0.00,,,0.20,VWS V14.01,2013-08-26 02:10:00,
2013-08-25 22:16:00,78.4,72.8,30.19,NE,56,2.0,8.0,83,0.00,,,0.20,VWS V14.01,2013-08-26 02:16:00,
2013-08-25 22:22:00,78.3,72.7,30.19,East,82,2.0,11.0,83,0.00,,,0.20,VWS V14.01,2013-08-26 02:22:00,
2013-08-25 22:28:00,78.2,72.6,30.19,East,80,1.0,10.0,83,0.00,,,0.20,VWS V14.01,2013-08-26 02:28:00,
2013-08-25 22:33:00,78.1,72.9,30.19,East,91,3.0,7.0,84,0.00,,,0.20,VWS V14.01,2013-08-26 02:33:00,
2013-08-25 22:38:00,78.0,72.8,30.18,ENE,68,7.0,9.0,84,0.00,,,0.20,VWS V14.01,2013-08-26 02:38:00,
2013-08-25 22:43:00,77.9,73.0,30.18,NE,37,5.0,10.0,85,0.00,,,0.20,VWS V14.01,2013-08-26 02:43:00,
2013-08-25 22:48:00,77.9,73.0,30.18,NE,46,2.0,8.0,85,0.00,,,0.20,VWS V14.01,2013-08-26 02:48:00,
2013-08-25 22:53:00,77.8,72.9,30.18,ENE,59,1.0,7.0,85,0.00,,,0.20,VWS V14.01,2013-08-26 02:53:00,
2013-08-25 22:58:00,77.7,73.2,30.18,NE,48,0.0,7.0,86,0.00,,,0.20,VWS V14.01,2013-08-26 02:58:00,
2013-08-25 23:05:00,77.7,73.2,30.18,ENE,73,1.0,5.0,86,0.00,,,0.20,VWS V14.01,2013-08-26 03:05:00,
2013-08-25 23:11:00,77.6,73.1,30.18,East,96,6.0,7.0,86,0.00,,,0.20,VWS V14.01,2013-08-26 03:11:00,
2013-08-25 23:17:00,77.6,73.1,30.18,ENE,73,0.0,5.0,86,0.00,,,0.20,VWS V14.01,2013-08-26 03:17:00,
2013-08-25 23:23:00,77.6,73.1,30.18,ENE,68,0.0,7.0,86,0.00,,,0.20,VWS V14.01,2013-08-26 03:23:00,
2013-08-25 23:28:00,77.5,73.3,30.18,NE,43,3.0,6.0,87,0.00,,,0.20,VWS V14.01,2013-08-26 03:28:00,
2013-08-25 23:33:00,77.4,73.2,30.18,East,97,1.0,5.0,87,0.00,,,0.20,VWS V14.01,2013-08-26 03:33:00,
2013-08-25 23:38:00,77.3,73.1,30.18,NE,37,4.0,4.0,87,0.00,,,0.20,VWS V14.01,2013-08-26 03:38:00,
2013-08-25 23:43:00,77.3,73.1,30.18,NE,55,0.0,5.0,87,0.00,,,0.20,VWS V14.01,2013-08-26 03:43:00,
2013-08-25 23:48:00,77.3,73.5,30.18,ENE,71,0.0,4.0,88,0.00,,,0.20,VWS V14.01,2013-08-26 03:48:00,
2013-08-25 23:53:00,77.3,73.5,30.18,ENE,65,1.0,5.0,88,0.00,,,0.20,VWS V14.01,2013-08-26 03:53:00,
2013-08-25 23:58:00,77.4,73.6,30.18,ENE,68,0.0,3.0,88,0.00,,,0.00,VWS V14.01,2013-08-26 03:58:00,